JBU2009 KPBI-KLAX

Flight info

Callsign JBU2009
Flight time N/A
Altitude 34000
Route TBIRD7 SMELZ Q116 JAWJA CABLO DEFUN SHYRE MHZ JRHED TIKYS HYDES ODOYU PNH FTI TANER KD36Q JASSE Q90 DNERO ANJLL4
Aircraft A321/M-SDE3FGHIRWY/LB1

Departure

Time 2026-04-22 22:44
Airport Palm Beach International Airport (KPBI)

Arrival

Time N/A
Airport Los Angeles International Airport (KLAX)
Time Latitude Longitude Altitude Speed Heading
2026-04-22 22:29 26.68517 -80.08888 18 ft 0 kts 346°
2026-04-22 22:35 26.68510 -80.08886 18 ft 2 kts 346°
2026-04-22 22:36 26.68496 -80.08881 18 ft 2 kts 346°
2026-04-22 22:36 26.68481 -80.08878 18 ft 2 kts 346°
2026-04-22 22:36 26.68472 -80.08875 18 ft 1 kts 346°
2026-04-22 22:36 26.68458 -80.08869 18 ft 2 kts 324°
2026-04-22 22:37 26.68447 -80.08858 18 ft 2 kts 306°
2026-04-22 22:37 26.68440 -80.08843 18 ft 2 kts 285°
2026-04-22 22:37 26.68438 -80.08833 18 ft 1 kts 273°
2026-04-22 22:37 26.68438 -80.08826 18 ft 0 kts 272°
2026-04-22 22:40 26.68439 -80.08845 18 ft 8 kts 272°
2026-04-22 22:40 26.68443 -80.08954 18 ft 15 kts 272°
2026-04-22 22:40 26.68448 -80.09077 18 ft 16 kts 269°
2026-04-22 22:40 26.68381 -80.09191 18 ft 20 kts 242°
2026-04-22 22:41 26.68364 -80.09349 18 ft 20 kts 272°
2026-04-22 22:41 26.68372 -80.09508 18 ft 22 kts 274°
2026-04-22 22:41 26.68385 -80.09712 18 ft 27 kts 272°
2026-04-22 22:41 26.68392 -80.09923 18 ft 26 kts 272°
2026-04-22 22:42 26.68401 -80.10124 18 ft 24 kts 274°
2026-04-22 22:42 26.68411 -80.10287 18 ft 19 kts 274°
2026-04-22 22:42 26.68418 -80.10421 20 ft 14 kts 272°
2026-04-22 22:42 26.68419 -80.10525 21 ft 14 kts 270°
2026-04-22 22:43 26.68420 -80.10649 21 ft 16 kts 271°
2026-04-22 22:43 26.68421 -80.10749 21 ft 7 kts 272°
2026-04-22 22:43 26.68423 -80.10785 21 ft 0 kts 271°
2026-04-22 22:43 26.68391 -80.10819 21 ft 13 kts 195°
2026-04-22 22:44 26.68316 -80.10704 21 ft 42 kts 92°
2026-04-22 22:44 26.68291 -80.10101 19 ft 110 kts 93°
2026-04-22 22:44 26.68244 -80.09026 77 ft 158 kts 92°
2026-04-22 22:44 26.68172 -80.07806 672 ft 160 kts 93°
2026-04-22 22:45 26.68115 -80.06597 1404 ft 157 kts 92°
2026-04-22 22:45 26.68090 -80.05396 1883 ft 156 kts 82°
2026-04-22 22:45 26.68473 -80.04229 2108 ft 166 kts 63°
2026-04-22 22:45 26.69067 -80.03078 2357 ft 178 kts 61°
2026-04-22 22:46 26.69713 -80.01829 2625 ft 191 kts 62°
2026-04-22 22:46 26.70378 -80.00491 2901 ft 204 kts 63°
2026-04-22 22:46 26.71086 -79.99023 3126 ft 223 kts 60°
2026-04-22 22:46 26.72186 -79.97736 3397 ft 243 kts 32°
2026-04-22 22:47 26.73868 -79.97149 3769 ft 262 kts 10°
2026-04-22 22:47 26.75675 -79.96882 4375 ft 266 kts 10°
2026-04-22 22:47 26.77553 -79.96945 4967 ft 276 kts 345°
2026-04-22 22:47 26.79164 -79.98111 5591 ft 283 kts 315°
2026-04-22 22:48 26.80384 -79.99822 6223 ft 286 kts 307°
2026-04-22 22:48 26.81561 -80.01631 6840 ft 289 kts 307°
2026-04-22 22:48 26.82784 -80.03445 7500 ft 292 kts 309°
2026-04-22 22:48 26.84032 -80.05225 8148 ft 294 kts 311°
2026-04-22 22:49 26.85329 -80.06993 8789 ft 296 kts 311°
2026-04-22 22:49 26.86658 -80.08765 9431 ft 299 kts 311°
2026-04-22 22:49 26.87996 -80.10541 10139 ft 300 kts 311°
2026-04-22 22:49 26.89364 -80.12347 10672 ft 310 kts 310°
2026-04-22 22:50 26.90802 -80.14238 11033 ft 325 kts 310°
2026-04-22 22:50 26.92281 -80.16183 11333 ft 339 kts 310°
2026-04-22 22:50 26.93848 -80.18248 11495 ft 352 kts 310°
2026-04-22 22:50 26.95457 -80.20365 11735 ft 361 kts 310°
2026-04-22 22:51 26.97084 -80.22505 11907 ft 360 kts 310°
2026-04-22 22:51 26.98695 -80.24622 11986 ft 358 kts 310°
2026-04-22 22:51 27.00326 -80.26770 11985 ft 357 kts 310°
2026-04-22 22:51 27.01930 -80.28882 12001 ft 356 kts 310°